FW7441 Weather Reports


Display with metric or nautical units.
time (UTC)temp
F
wind
direction
speed
MPH
gust
MPH
rain 1hr
in
rain 24hr
in
rain mn
in
humidity
%
barometer
mb
20260903200627 84 116 1.0 1.0 0.00 0.09 0.09 80 1014.0
20260903200122 84 306 1.0 2.0 0.00 0.09 0.09 80 1013.9
20260903195618 83 233 0.0 0.0 0.00 0.09 0.09 79 1013.8
20260903195113 84 61 3.0 3.0 0.00 0.09 0.09 81 1013.9
20260903194608 83 68 2.0 5.0 0.00 0.09 0.09 82 1014.0
20260903194103 84 116 1.0 1.0 0.00 0.09 0.09 78 1014.3
20260903193559 84 8 0.0 1.0 0.00 0.09 0.09 81 1014.4
20260903193055 84 30 1.0 1.0 0.00 0.09 0.09 80 1014.1
20260903192551 83 61 1.0 1.0 0.00 0.09 0.09 81 1014.1
20260903192046 82 208 0.0 0.0 0.00 0.09 0.09 82 1014.1
20260903191542 82 202 0.0 1.0 0.00 0.09 0.09 81 1014.0
20260903191043 82 161 1.0 1.0 0.00 0.09 0.09 84 1014.1
20260903190541 82 99 3.0 3.0 0.00 0.09 0.09 85 1013.9
20260903190041 81 245 2.0 2.0 0.00 0.09 0.09 85 1014.0
20260903185537 81 170 2.0 3.0 0.00 0.09 0.09 84 1014.0
20260903185032 80 101 4.0 5.0 0.00 0.09 0.09 84 1014.2
20260903184528 80 211 2.0 2.0 0.00 0.09 0.09 86 1014.3
20260903184023 80 212 3.0 3.0 0.00 0.09 0.09 85 1014.2
20260903183522 80 210 3.0 3.0 0.00 0.09 0.09 86 1014.3
20260903183018 79 121 1.0 2.0 0.00 0.09 0.09 83 1014.3
20260903182516 80 174 1.0 2.0 0.00 0.09 0.09 85 1014.2
20260903182013 80 159 3.0 3.0 0.00 0.09 0.09 87 1014.3
20260903181506 80 199 1.0 1.0 0.00 0.09 0.09 86 1014.6
20260903181005 78 193 2.0 2.0 0.00 0.09 0.09 88 1014.6
20260903180500 78 158 3.0 5.0 0.00 0.09 0.09 88 1014.3
20260903175954 77 107 0.0 1.0 0.00 0.09 0.09 91 1014.6
20260903175448 77 168 0.0 0.0 0.00 0.09 0.09 91 1014.9
20260903174947 76 74 1.0 1.0 0.00 0.09 0.09 92 1015.0
20260903174443 76 102 2.0 2.0 0.00 0.09 0.09 92 1015.2
20260903173942 75 81 1.0 1.0 0.00 0.09 0.09 93 1015.2
20260903173438 75 261 1.0 1.0 0.00 0.09 0.09 95 1015.3
20260903172933 74 92 3.0 3.0 0.00 0.09 0.09 96 1015.3
20260903172428 74 83 1.0 2.0 0.00 0.09 0.09 96 1015.0
20260903171924 74 125 0.0 0.0 0.00 0.09 0.09 97 1015.1
20260903171418 73 76 2.0 3.0 0.00 0.09 0.09 98 1015.4
20260903170913 72 49 2.0 2.0 0.00 0.09 0.09 98 1015.4
20260903170408 72 4 3.0 5.0 0.00 0.09 0.09 98 1015.6
20260903165907 72 19 1.0 1.0 0.00 0.09 0.09 98 1015.5
20260903165401 72 264 1.0 2.0 0.00 0.09 0.09 98 1015.8
20260903164856 72 313 1.0 2.0 0.00 0.09 0.09 97 1016.0
20260903164351 72 43 4.0 6.0 0.00 0.09 0.09 97 1016.0
20260903163850 73 22 7.0 13.0 0.00 0.09 0.09 98 1016.2
20260903163346 73 329 3.0 5.0 0.00 0.09 0.09 98 1016.0
20260903162842 74 77 1.0 1.0 0.00 0.09 0.09 98 1015.9
20260903162339 74 41 1.0 1.0 0.00 0.09 0.09 98 1015.9
20260903161834 74 272 2.0 2.0 0.05 0.09 0.09 97 1015.7
20260903161329 74 4 4.0 6.0 0.05 0.09 0.09 97 1015.7
20260903160825 74 232 2.0 2.0 0.19 0.08 0.08 96 1015.8
20260903160324 75 2 5.0 8.0 0.24 0.08 0.08 96 1015.8
20260903155822 75 317 1.0 2.0 0.05 0.05 0.05 95 1016.0
20260903155318 76 263 6.0 9.0 0.12 0.05 0.05 95 1016.0
20260903154813 78 66 2.0 3.0 0.19 0.04 0.04 94 1015.8
20260903154310 79 267 0.0 1.0 0.19 0.03 0.03 92 1015.4
20260903153805 80 163 0.0 0.0 0.07 0.01 0.01 90 1015.4
20260903153300 80 236 0.0 0.0 0.00 0.00 0.00 88 1015.4
20260903152757 81 294 1.0 1.0 0.00 0.00 0.00 87 1015.1
20260903152252 81 282 1.0 1.0 0.00 0.00 0.00 85 1015.0
20260903151752 82 37 1.0 2.0 0.00 0.00 0.00 84 1015.0
20260903151248 82 29 1.0 1.0 0.00 0.00 0.00 85 1015.1
20260903150748 83 307 4.0 7.0 0.00 0.00 0.00 84 1014.9
20260903150242 84 214 0.0 1.0 0.00 0.00 0.00 83 1015.0
20260903145737 84 210 0.0 0.0 0.00 0.00 0.00 82 1014.3
20260903145233 84 199 0.0 0.0 0.00 0.00 0.00 82 1014.0
20260903144731 85 202 0.0 0.0 0.00 0.00 0.00 82 1014.1
20260903144227 85 201 0.0 0.0 0.00 0.00 0.00 80 1014.1
20260903143722 85 217 0.0 0.0 0.00 0.00 0.00 81 1014.0
20260903143219 84 292 0.0 0.0 0.00 0.00 0.00 82 1014.1
20260903142714 84 255 0.0 0.0 0.00 0.00 0.00 82 1014.1
20260903142210 84 234 0.0 1.0 0.00 0.00 0.00 82 1014.1
20260903141705 84 309 1.0 1.0 0.00 0.00 0.00 81 1014.0
20260903141200 84 222 0.0 0.0 0.00 0.00 0.00 81 1014.1
20260903140656 84 140 0.0 1.0 0.00 0.00 0.00 81 1014.0
20260903140151 84 311 0.0 1.0 0.00 0.00 0.00 81 1013.9
20260903135647 84 216 1.0 1.0 0.00 0.00 0.00 79 1014.0
20260903135142 84 261 1.0 2.0 0.00 0.00 0.00 79 1013.8
20260903134641 85 215 0.0 0.0 0.00 0.00 0.00 78 1013.7
20260903134137 86 219 1.0 1.0 0.00 0.00 0.00 76 1013.7
20260903133635 85 115 0.0 1.0 0.00 0.00 0.00 76 1013.6
20260903133131 84 233 2.0 2.0 0.00 0.00 0.00 78 1013.5
20260903132630 84 72 1.0 1.0 0.00 0.00 0.00 78 1013.4
20260903132125 84 215 0.0 0.0 0.00 0.00 0.00 80 1013.4
20260903131620 83 199 0.0 1.0 0.00 0.00 0.00 80 1013.4
20260903131119 83 211 2.0 6.0 0.00 0.00 0.00 80 1013.6
20260903130616 82 278 1.0 1.0 0.00 0.00 0.00 82 1013.4
20260903130109 82 257 2.0 3.0 0.00 0.00 0.00 82 1013.5
20260903125607 81 198 2.0 2.0 0.00 0.00 0.00 83 1013.8
20260903125103 81 236 1.0 1.0 0.00 0.00 0.00 84 1013.7
20260903124602 80 223 0.0 1.0 0.00 0.00 0.00 85 1013.6
20260903124102 80 238 3.0 5.0 0.00 0.00 0.00 86 1013.8
20260903123601 80 248 1.0 1.0 0.00 0.00 0.00 86 1013.9
20260903123101 79 225 2.0 2.0 0.00 0.00 0.00 88 1013.9
20260903122601 79 149 1.0 1.0 0.00 0.00 0.00 89 1013.9
20260903122055 78 195 1.0 2.0 0.00 0.00 0.00 89 1013.9
20260903121549 78 177 1.0 1.0 0.00 0.00 0.00 90 1013.9
20260903121045 78 212 0.0 1.0 0.00 0.00 0.00 91 1013.8
20260903120543 77 191 0.0 0.0 0.00 0.00 0.00 91 1013.8
20260903120038 77 201 0.0 0.0 0.00 0.00 0.00 92 1013.9
20260903115537 77 214 1.0 2.0 0.00 0.00 0.00 92 1013.7
20260903115032 77 201 0.0 0.0 0.00 0.00 0.00 93 1013.7
20260903114527 77 203 0.0 1.0 0.00 0.00 0.00 93 1013.9
20260903114023 77 167 1.0 2.0 0.00 0.00 0.00 93 1013.7
20260903113518 77 220 0.0 1.0 0.00 0.00 0.00 93 1013.8
20260903113014 77 222 0.0 0.0 0.00 0.00 0.00 93 1013.8
20260903112510 77 196 2.0 2.0 0.00 0.00 0.00 93 1013.8
20260903112009 77 220 0.0 0.0 0.00 0.00 0.00 92 1013.8
20260903111503 77 193 0.0 1.0 0.00 0.00 0.00 93 1013.8
20260903110959 77 201 0.0 1.0 0.00 0.00 0.00 93 1013.6
20260903110455 77 232 1.0 1.0 0.00 0.00 0.00 92 1013.7
20260903105949 77 215 1.0 1.0 0.00 0.00 0.00 92 1013.6
20260903105445 77 178 3.0 5.0 0.00 0.00 0.00 93 1013.9
20260903104944 77 181 1.0 1.0 0.00 0.00 0.00 94 1013.9
20260903104443 77 190 1.0 1.0 0.00 0.00 0.00 94 1013.5
20260903103940 77 202 0.0 0.0 0.00 0.00 0.00 95 1013.6
20260903103436 77 230 0.0 1.0 0.00 0.00 0.00 95 1013.5
20260903102931 77 200 0.0 0.0 0.00 0.00 0.00 95 1013.7
20260903102427 77 191 0.0 0.0 0.00 0.00 0.00 95 1013.7
20260903101925 77 169 1.0 1.0 0.00 0.00 0.00 96 1013.7
20260903101420 77 202 0.0 0.0 0.00 0.00 0.00 96 1013.6
20260903100915 77 202 0.0 0.0 0.00 0.00 0.00 95 1013.5
20260903100411 77 202 0.0 0.0 0.00 0.00 0.00 95 1013.6
20260903095907 77 203 0.0 0.0 0.00 0.00 0.00 95 1013.8
20260903095356 77 210 0.0 1.0 0.00 0.00 0.00 95 1013.9
20260903094852 77 232 0.0 0.0 0.00 0.00 0.00 95 1013.7
20260903094351 76 232 0.0 0.0 0.00 0.00 0.00 96 1013.9
20260903093847 76 233 0.0 0.0 0.00 0.00 0.00 96 1013.7
20260903093342 76 233 0.0 0.0 0.00 0.00 0.00 96 1013.7
20260903092838 77 233 0.0 0.0 0.00 0.00 0.00 96 1013.7
20260903092332 77 233 0.0 0.0 0.00 0.00 0.00 95 1013.4
20260903091831 77 233 0.0 0.0 0.00 0.00 0.00 95 1013.7
20260903091325 77 233 0.0 0.0 0.00 0.00 0.00 95 1013.5
20260903090820 77 233 0.0 0.0 0.00 0.00 0.00 95 1013.6
20260903090321 77 232 0.0 0.0 0.00 0.00 0.00 94 1013.6
20260903085819 78 232 0.0 0.0 0.00 0.00 0.00 94 1013.8
20260903085313 78 232 0.0 0.0 0.00 0.00 0.00 94 1013.6
20260903084812 78 232 0.0 0.0 0.00 0.00 0.00 94 1013.8
20260903084306 78 229 0.0 0.0 0.00 0.00 0.00 93 1013.6
20260903083801 78 229 0.0 0.0 0.00 0.00 0.00 93 1013.8
20260903083302 78 222 0.0 0.0 0.00 0.00 0.00 92 1013.8
20260903082800 79 222 0.0 0.0 0.00 0.00 0.00 92 1013.7
20260903082256 79 228 0.0 0.0 0.00 0.00 0.00 92 1014.0
20260903081751 79 272 0.0 1.0 0.00 0.00 0.00 92 1013.8
20260903081247 79 269 0.0 0.0 0.00 0.00 0.00 91 1013.8
20260903080743 79 248 0.0 0.0 0.00 0.00 0.00 91 1013.5
20260903080240 79 219 0.0 0.0 0.00 0.00 0.00 91 1013.3
20260903075739 79 219 0.0 0.0 0.00 0.00 0.00 91 1013.5
20260903075235 79 176 1.0 2.0 0.00 0.00 0.00 91 1013.3
20260903074733 79 157 0.0 1.0 0.00 0.00 0.00 92 1013.7
20260903074231 78 185 0.0 0.0 0.00 0.00 0.00 92 1013.7
20260903073724 78 219 0.0 0.0 0.00 0.00 0.00 92 1013.4
20260903073219 78 190 0.0 0.0 0.00 0.00 0.00 93 1013.5
20260903072715 78 190 0.0 0.0 0.00 0.00 0.00 93 1013.8
20260903072212 78 190 0.0 0.0 0.00 0.00 0.00 93 1013.4
20260903071707 78 192 0.0 0.0 0.00 0.00 0.00 94 1013.6
20260903071203 78 192 0.0 0.0 0.00 0.00 0.00 94 1013.5
20260903070703 78 192 0.0 0.0 0.00 0.00 0.00 93 1013.8
20260903070158 78 192 0.0 0.0 0.00 0.00 0.00 93 1013.5
20260903065653 79 192 0.0 0.0 0.00 0.00 0.00 93 1013.5
20260903065147 79 192 0.0 0.0 0.00 0.00 0.00 93 1013.7
20260903064646 79 193 0.0 0.0 0.00 0.00 0.00 92 1013.5
20260903064142 79 193 0.0 0.0 0.00 0.00 0.00 92 1013.8
20260903063637 79 195 0.0 0.0 0.00 0.00 0.00 92 1013.8
20260903063132 79 216 0.0 0.0 0.00 0.00 0.00 92 1013.7
20260903062628 79 206 0.0 0.0 0.00 0.00 0.00 92 1013.7
20260903062123 79 185 0.0 0.0 0.00 0.00 0.00 92 1013.8
20260903061618 80 185 0.0 0.0 0.00 0.00 0.00 92 1013.8
20260903061117 80 235 0.0 0.0 0.00 0.00 0.00 92 1013.8
20260903060613 80 197 0.0 0.0 0.00 0.00 0.00 92 1014.0
20260903060108 80 217 0.0 0.0 0.00 0.00 0.00 92 1013.9
20260903055606 80 216 0.0 0.0 0.00 0.00 0.00 92 1014.0
20260903055104 80 233 1.0 1.0 0.00 0.00 0.00 92 1013.9
20260903054559 80 218 0.0 0.0 0.00 0.00 0.00 92 1013.8
20260903054055 80 194 0.0 0.0 0.00 0.00 0.00 92 1013.8
20260903053550 80 250 0.0 1.0 0.00 0.00 0.00 92 1013.9
20260903053046 80 226 1.0 2.0 0.00 0.00 0.00 92 1013.9
20260903052542 80 226 0.0 0.0 0.00 0.00 0.00 92 1013.8
20260903052037 80 225 0.0 1.0 0.00 0.00 0.00 92 1013.7
20260903051537 80 233 1.0 1.0 0.00 0.00 0.00 92 1013.8
20260903051033 80 207 0.0 0.0 0.00 0.00 0.00 92 1013.7
20260903050531 80 244 2.0 2.0 0.00 0.00 0.00 92 1013.8
20260903050027 80 204 0.0 0.0 0.00 0.00 0.00 92 1013.7
20260903045527 80 184 0.0 0.0 0.00 0.00 0.00 92 1013.6
20260903045024 80 198 0.0 1.0 0.00 0.00 0.00 92 1013.5
20260903044519 80 206 0.0 0.0 0.00 0.00 0.00 92 1013.5
20260903044015 80 242 0.0 0.0 0.00 0.00 0.00 92 1013.6
20260903043510 80 211 0.0 0.0 0.00 0.00 0.00 92 1013.4
20260903043009 80 221 0.0 0.0 0.00 0.00 0.00 91 1013.5
20260903042504 80 194 0.0 1.0 0.00 0.00 0.00 91 1013.3
20260903042000 80 208 0.0 0.0 0.00 0.00 0.00 91 1013.3
20260903041456 80 195 1.0 1.0 0.00 0.00 0.00 92 1013.3
20260903040952 80 213 1.0 1.0 0.00 0.00 0.00 92 1013.3
20260903040450 80 207 0.0 0.0 0.00 0.00 0.00 92 1013.5
20260903035947 81 195 0.0 1.0 0.00 0.00 0.00 91 1013.6
20260903035442 81 243 1.0 1.0 0.00 0.00 0.00 91 1013.6
20260903034937 81 209 0.0 0.0 0.00 0.00 0.00 90 1013.5
20260903034432 81 215 0.0 0.0 0.00 0.00 0.00 90 1013.6
20260903033927 81 183 1.0 2.0 0.00 0.00 0.00 91 1013.4
20260903033422 81 193 0.0 0.0 0.00 0.00 0.00 91 1013.7
20260903032917 81 214 0.0 0.0 0.00 0.00 0.00 91 1013.7
20260903032413 81 26 0.0 0.0 0.00 0.00 0.00 90 1013.7
20260903031908 81 246 0.0 1.0 0.00 0.00 0.00 91 1013.6
20260903031407 81 211 0.0 0.0 0.00 0.00 0.00 90 1013.6
20260903030903 81 232 0.0 0.0 0.00 0.00 0.00 90 1013.4
20260903030359 81 262 0.0 0.0 0.00 0.00 0.00 90 1013.5
20260903025854 81 192 0.0 0.0 0.00 0.00 0.00 89 1013.6
20260903025350 82 212 0.0 0.0 0.00 0.00 0.00 89 1013.4
20260903024850 82 235 0.0 0.0 0.00 0.00 0.00 88 1013.5
20260903024344 82 199 0.0 0.0 0.00 0.00 0.00 87 1013.5
20260903023839 82 191 0.0 0.0 0.00 0.00 0.00 87 1013.6
20260903023335 82 229 1.0 1.0 0.00 0.00 0.00 87 1013.5
20260903022830 82 211 0.0 1.0 0.00 0.00 0.00 87 1013.6
20260903022329 82 203 1.0 1.0 0.00 0.00 0.00 87 1013.3
20260903021822 82 267 1.0 1.0 0.00 0.00 0.00 87 1013.4
20260903021319 81 205 0.0 1.0 0.00 0.00 0.00 89 1013.3
20260903020818 81 252 0.0 0.0 0.00 0.00 0.00 89 1013.5
20260903020313 81 205 0.0 0.0 0.00 0.00 0.00 89 1013.5
20260903015808 81 210 0.0 0.0 0.00 0.00 0.00 90 1013.4
20260903015305 81 210 0.0 0.0 0.00 0.00 0.00 90 1013.4
20260903014759 81 210 0.0 0.0 0.00 0.00 0.00 89 1013.3
20260903014258 81 210 0.0 0.0 0.00 0.00 0.00 89 1013.2
20260903013753 81 210 0.0 0.0 0.00 0.00 0.00 88 1013.1
20260903013252 82 210 0.0 0.0 0.00 0.00 0.00 88 1013.3
20260903012751 82 209 0.0 0.0 0.00 0.00 0.00 87 1013.1
20260903012246 82 209 0.0 0.0 0.00 0.00 0.00 87 1013.1
20260903011745 82 208 0.0 0.0 0.00 0.00 0.00 87 1013.0
20260903011244 82 208 0.0 0.0 0.00 0.00 0.00 86 1013.0
20260903010740 83 208 0.0 0.0 0.00 0.00 0.00 85 1013.0
20260903010235 83 207 0.0 0.0 0.00 0.00 0.00 84 1013.0
20260903005734 84 207 0.0 1.0 0.00 0.00 0.00 83 1012.6
20260903005229 84 205 0.0 0.0 0.00 0.00 0.00 83 1012.6
20260903004725 83 235 0.0 0.0 0.00 0.00 0.00 83 1012.5
20260903004220 83 235 0.0 0.0 0.00 0.00 0.00 83 1012.8
20260903003715 83 235 0.0 0.0 0.00 0.00 0.00 83 1012.6
20260903003211 84 235 0.0 0.0 0.00 0.00 0.00 83 1012.6
20260903002706 84 235 0.0 0.0 0.00 0.00 0.00 82 1012.6
20260903002159 85 235 0.0 0.0 0.00 0.00 0.00 81 1012.5
20260903001655 85 235 0.0 0.0 0.00 0.00 0.00 80 1012.8
20260903001149 86 235 0.0 0.0 0.00 0.00 0.00 79 1012.4
20260903000644 86 249 0.0 1.0 0.00 0.00 0.00 78 1012.5
20260903000144 86 220 0.0 0.0 0.00 0.00 0.00 77 1012.6
20260902235643 87 221 0.0 0.0 0.00 0.00 0.00 76 1012.6
20260902235138 87 220 0.0 0.0 0.00 0.00 0.00 76 1012.4
20260902234638 88 209 0.0 0.0 0.00 0.00 0.00 75 1012.4
20260902234136 88 207 2.0 3.0 0.00 0.00 0.00 73 1012.3
20260902233632 88 209 1.0 2.0 0.00 0.00 0.00 72 1012.3
20260902233125 88 243 3.0 5.0 0.00 0.00 0.00 72 1012.5
20260902232620 89 207 0.0 1.0 0.00 0.00 0.00 72 1012.4
20260902232119 89 178 2.0 2.0 0.00 0.00 0.00 70 1012.5
20260902231618 90 208 1.0 2.0 0.00 0.00 0.00 70 1012.4
20260902231113 90 209 1.0 2.0 0.00 0.00 0.00 69 1012.3
20260902230609 90 231 3.0 5.0 0.00 0.00 0.00 68 1012.2
20260902230107 90 202 2.0 3.0 0.00 0.00 0.00 68 1012.4
20260902225602 90 237 0.0 1.0 0.00 0.00 0.00 69 1012.3
20260902225102 90 207 1.0 2.0 0.00 0.00 0.00 67 1012.3
20260902224601 91 227 1.0 1.0 0.00 0.00 0.00 68 1012.4
20260902224056 91 205 0.0 0.0 0.00 0.00 0.00 67 1012.5
20260902223553 90 186 1.0 1.0 0.00 0.00 0.00 67 1012.5
20260902223052 91 143 1.0 2.0 0.00 0.00 0.00 66 1012.6
20260902222550 91 202 2.0 2.0 0.00 0.00 0.00 65 1012.6
20260902222049 91 237 2.0 2.0 0.00 0.00 0.00 66 1012.8
20260902221544 91 169 2.0 3.0 0.00 0.00 0.00 64 1012.5
20260902221039 92 221 0.0 2.0 0.00 0.00 0.00 64 1012.6
20260902220534 93 298 0.0 1.0 0.00 0.00 0.00 62 1012.8
20260902220029 93 202 0.0 0.0 0.00 0.00 0.00 60 1012.6
20260902215525 92 253 1.0 1.0 0.00 0.00 0.00 61 1012.5
20260902215020 92 231 1.0 1.0 0.00 0.00 0.00 60 1012.6
20260902214520 92 288 3.0 3.0 0.00 0.00 0.00 58 1012.5
20260902214019 93 257 3.0 3.0 0.00 0.00 0.00 58 1012.8
20260902213515 93 270 2.0 2.0 0.00 0.00 0.00 58 1012.9
20260902213014 94 217 1.0 2.0 0.00 0.00 0.00 58 1012.5
20260902212510 94 242 2.0 3.0 0.00 0.00 0.00 61 1012.6
20260902212006 92 222 2.0 2.0 0.00 0.00 0.00 61 1012.8
20260902211502 92 268 1.0 1.0 0.00 0.00 0.00 62 1012.8
20260902210956 93 350 3.0 5.0 0.00 0.00 0.00 60 1013.0
20260902210457 95 252 7.0 14.0 0.00 0.00 0.00 57 1012.8
20260902205955 95 235 2.0 3.0 0.00 0.00 0.00 60 1012.8
20260902205450 95 128 2.0 3.0 0.00 0.00 0.00 60 1012.9
20260902204946 94 249 0.0 0.0 0.00 0.00 0.00 60 1012.8
20260902204445 94 215 2.0 3.0 0.00 0.00 0.00 60 1012.9
20260902203941 95 219 2.0 2.0 0.00 0.00 0.00 59 1012.8
20260902203436 95 213 5.0 7.0 0.00 0.00 0.00 59 1012.5
20260902202935 96 262 1.0 1.0 0.00 0.00 0.00 57 1012.8
20260902202431 96 267 4.0 6.0 0.00 0.00 0.00 57 1013.0
20260902201928 95 208 3.0 3.0 0.00 0.00 0.00 56 1012.9
20260902201423 94 236 2.0 2.0 0.00 0.00 0.00 62 1012.8
20260902200923 93 180 2.0 2.0 0.00 0.00 0.00 61 1013.0